GLOBALSTAR M004 DEB, 43356

Orbit data source: Space-Track

GLOBALSTAR M004 DEB, 43356 is space debris in LEO originally from a launch on Sat, 14 Feb 1998 UTC launched from the Air Force Eastern Test Range (AFETR). Debris objects in space refer to the collection of defunct objects orbiting the Earth. Examples of debris include non-operational satellites, rocket bodies, and fragments generated from explosions, collisions, or faulty payload assembly.

Loading next visibility...
Identifier
43356, 1998-008G
Orbit
LEO
Last TLE update
13 hours ago
Origin
Manufacturer
Unknown
Mission
Spacecraft
Bus & Motor
Unknown
Mass
Unknown
Launch date (UTC)
1998-02-14 (27 years ago)
Launch vehicle
Unknown
Launch site
Air Force Eastern Test Range (AFETR)
Object type
Payload
Rocket body
Debris
Shape & HBR
Unknown
Radar Cross Section
Small (<0.1 m²)

Expand to show TLE details & history

TLE from 13 hours ago
0 GLOBALSTAR M004 DEB
1 43356U 98008G   25130.70356129  .00000677  00000-0  35314-2 0  9998
2 43356  51.9019 278.9379 0039844  59.0802 301.3978 12.77990856433819
Epoch: 2025-05-10T16:53Z
Definitive object data (Epoch: 2025-05-10T16:53:07.695Z)
Latitude
-0.00007°
Longitude
156.91424°
Altitude
1,334.285 km
Speed
7.199 km/s
True Right ascension
18h 35m 45s
True Declination
0° 00' 00"
Sunlit
Object was in full shadow at TLE epoch
Visualization TLE readout
Latitude
32.81113°
Longitude
-174.63773°
Altitude
1,322.158 km
Speed
7.214 km/s
Apparent Right ascension
22h 58m 42s
Apparent Declination
0° 34' 51"
Sunlit
Object is in daylight
Visualization observer readout
Local Sidereal Time
14:31:37
Azimuth
63.932° ENE
Elevation
-26.91°
Doppler factor
1
Orbital elements
Apogee altitude
1,380.76 km
Perigee altitude
1,319.177 km
Semi-major axis
7,728.105 km
Eccentricity
0.0039844
Inclination
51.9019°
RAAN
278.9379°
Arg. of periapsis
59.0802°
True anomaly
301.00707°
Mean anomaly
301.3978°
Eccentric anomaly
301.20253°
Mean motion
3.19473 °/min
BSTAR
0.0035314
Orbital period
112.69 mins
Loading maneuver chart data...
Loading SW <> Apogee altitude chart data...
Loading historical data...
Loading historical data...
Loading historical data...
Loading historical data...
Loading historical data...
Loading historical data...
Loading historical data...

GLOBALSTAR M004 DEB Visibility forecast

Observer location: undefined°, undefined°

Span
Click to sort rows by Start time (UTC) header in descending order
Start Az.
Max El. time (UTC)
Max El. Az.
Max El.
End time (UTC)
End Az.
15 mins2025-05-11 11:45:56.040Z205.351° SW2025-05-11 11:53:56.040Z127.984° SE38.262°2025-05-11 12:00:56.040Z60.627° ENE
14 mins2025-05-11 13:45:56.040Z259.126° W2025-05-11 13:51:56.040Z331.355° NNW40.014°2025-05-11 13:59:56.040Z50.538° ENE
13 mins2025-05-11 15:45:56.040Z299.502° NW2025-05-11 15:51:56.040Z1.066° NNE30.301°2025-05-11 15:58:56.040Z61.329° ENE
14 mins2025-05-11 17:44:56.040Z312.437° NW2025-05-11 17:51:56.040Z30.173° NE36.708°2025-05-11 17:58:56.040Z94.469° ESE
14 mins2025-05-11 19:43:56.040Z302.028° NW2025-05-11 19:49:56.040Z234.832° WSW42.99°2025-05-11 19:57:56.040Z143.207° SSE
8 mins2025-05-11 21:43:56.040Z266.367° W2025-05-11 21:46:56.040Z242.54° WSW16.028°2025-05-11 21:51:56.040Z204.828° SW
|